TimeMDT,TemperatureF,Dew PointF,Humidity,Sea Level PressureIn,VisibilityMPH,Wind Direction,Wind SpeedMPH,Gust SpeedMPH,PrecipitationIn,Events,Conditions,WindDirDegrees,DateUTC
12:15 AM,59.0,26.6,29,29.97,-9999.0,WNW,5.8,-,N/A,,Clear,300,2012-10-03 06:15:00
12:35 AM,55.4,26.6,33,29.97,-9999.0,WNW,5.8,-,N/A,,Clear,290,2012-10-03 06:35:00
12:55 AM,57.2,23.0,27,29.98,-9999.0,NW,8.1,-,N/A,,Clear,310,2012-10-03 06:55:00
1:15 AM,59.0,23.0,25,29.99,-9999.0,NW,10.4,17.3,N/A,,Clear,320,2012-10-03 07:15:00
1:35 AM,57.2,23.0,27,30.01,-9999.0,NNW,9.2,-,N/A,,Clear,330,2012-10-03 07:35:00
1:55 AM,55.4,21.2,26,30.02,-9999.0,NNW,10.4,-,N/A,,Clear,330,2012-10-03 07:55:00
2:15 AM,55.4,23.0,29,30.03,-9999.0,NNW,12.7,17.3,N/A,,Clear,330,2012-10-03 08:15:00
2:35 AM,55.4,24.8,31,30.05,-9999.0,NW,12.7,19.6,N/A,,Clear,320,2012-10-03 08:35:00
2:55 AM,53.6,24.8,33,30.07,-9999.0,NW,9.2,-,N/A,,Clear,320,2012-10-03 08:55:00
3:15 AM,53.6,24.8,33,30.08,-9999.0,WNW,12.7,-,N/A,,Clear,300,2012-10-03 09:15:00
3:35 AM,53.6,23.0,30,30.09,-9999.0,WNW,16.1,-,N/A,,Clear,300,2012-10-03 09:35:00
3:55 AM,53.6,23.0,30,30.10,-9999.0,WNW,13.8,-,N/A,,Partly Cloudy,300,2012-10-03 09:55:00
4:15 AM,51.8,19.4,28,30.11,-9999.0,WNW,12.7,-,N/A,,Mostly Cloudy,290,2012-10-03 10:15:00
4:55 AM,50.0,21.2,32,30.12,-9999.0,WNW,11.5,-,N/A,,Mostly Cloudy,290,2012-10-03 10:55:00
5:15 AM,50.0,19.4,30,30.13,-9999.0,WNW,16.1,-,N/A,,Mostly Cloudy,300,2012-10-03 11:15:00
5:35 AM,50.0,19.4,30,30.14,-9999.0,WNW,15.0,-,N/A,,Overcast,300,2012-10-03 11:35:00
5:55 AM,50.0,17.6,28,30.15,-9999.0,West,11.5,-,N/A,,Overcast,280,2012-10-03 11:55:00
6:15 AM,50.0,15.8,26,30.16,-9999.0,WNW,17.3,21.9,N/A,,Overcast,300,2012-10-03 12:15:00
6:35 AM,48.2,15.8,27,30.17,-9999.0,WNW,12.7,-,N/A,,Overcast,300,2012-10-03 12:35:00
6:55 AM,48.2,14.0,25,30.18,-9999.0,NW,12.7,21.9,N/A,,Scattered Clouds,310,2012-10-03 12:55:00
7:15 AM,46.4,12.2,25,30.18,-9999.0,NW,13.8,19.6,N/A,,Clear,310,2012-10-03 13:15:00
7:35 AM,46.4,10.4,23,30.20,-9999.0,NW,12.7,19.6,N/A,,Clear,320,2012-10-03 13:35:00
7:55 AM,44.6,12.2,27,30.21,-9999.0,NNW,10.4,-,N/A,,Clear,340,2012-10-03 13:55:00
8:15 AM,44.6,10.4,25,30.21,-9999.0,NW,9.2,18.4,N/A,,Clear,310,2012-10-03 14:15:00
8:35 AM,46.4,10.4,23,30.22,9.0,NW,13.8,19.6,N/A,,Clear,310,2012-10-03 14:35:00
8:55 AM,46.4,12.2,25,30.23,10.0,NNW,9.2,-,N/A,,Clear,330,2012-10-03 14:55:00
9:15 AM,46.4,12.2,25,30.23,10.0,NW,15.0,18.4,N/A,,Clear,310,2012-10-03 15:15:00
9:35 AM,46.4,12.2,25,30.24,10.0,WNW,17.3,21.9,N/A,,Clear,300,2012-10-03 15:35:00
9:55 AM,48.2,12.2,24,30.24,10.0,NW,16.1,23.0,N/A,,Clear,310,2012-10-03 15:55:00
10:15 AM,48.2,14.0,25,30.24,10.0,WNW,16.1,21.9,N/A,,Clear,300,2012-10-03 16:15:00
10:35 AM,50.0,12.2,22,30.25,10.0,NW,15.0,20.7,N/A,,Clear,310,2012-10-03 16:35:00
10:55 AM,50.0,10.4,20,30.25,10.0,NW,12.7,21.9,N/A,,Clear,310,2012-10-03 16:55:00
11:15 AM,51.8,8.6,18,30.25,10.0,NNW,18.4,24.2,N/A,,Clear,330,2012-10-03 17:15:00
11:35 AM,53.6,8.6,16,30.26,10.0,NNW,13.8,21.9,N/A,,Clear,330,2012-10-03 17:35:00
11:55 AM,53.6,8.6,16,30.25,10.0,NNW,16.1,23.0,N/A,,Clear,340,2012-10-03 17:55:00
12:15 PM,53.6,8.6,16,30.25,10.0,NW,19.6,27.6,N/A,,Clear,320,2012-10-03 18:15:00
12:35 PM,53.6,8.6,16,30.25,10.0,NNW,19.6,24.2,N/A,,Clear,330,2012-10-03 18:35:00
12:55 PM,55.4,8.6,15,30.25,10.0,NW,12.7,23.0,N/A,,Clear,320,2012-10-03 18:55:00
1:15 PM,57.2,8.6,14,30.25,10.0,WNW,12.7,18.4,N/A,,Clear,300,2012-10-03 19:15:00
1:35 PM,57.2,8.6,14,30.24,10.0,NNW,13.8,20.7,N/A,,Clear,330,2012-10-03 19:35:00
1:55 PM,59.0,8.6,14,30.23,10.0,NNW,12.7,20.7,N/A,,Clear,330,2012-10-03 19:55:00
2:15 PM,59.0,8.6,14,30.23,10.0,NNW,13.8,19.6,N/A,,Clear,330,2012-10-03 20:15:00
2:35 PM,59.0,8.6,14,30.22,10.0,NNW,9.2,19.6,N/A,,Clear,330,2012-10-03 20:35:00
2:55 PM,60.8,8.6,13,30.21,10.0,NW,10.4,19.6,N/A,,Clear,320,2012-10-03 20:55:00
3:15 PM,60.8,8.6,13,30.21,10.0,WNW,12.7,-,N/A,,Clear,290,2012-10-03 21:15:00
3:35 PM,62.6,8.6,12,30.20,10.0,NW,11.5,17.3,N/A,,Clear,320,2012-10-03 21:35:00
3:55 PM,62.6,8.6,12,30.19,10.0,NW,11.5,19.6,N/A,,Clear,310,2012-10-03 21:55:00
4:15 PM,62.6,8.6,12,30.19,10.0,NW,9.2,16.1,N/A,,Clear,320,2012-10-03 22:15:00
4:55 PM,62.6,10.4,13,30.18,10.0,NW,10.4,17.3,N/A,,Clear,320,2012-10-03 22:55:00
5:15 PM,64.4,10.4,12,30.18,10.0,NW,11.5,-,N/A,,Clear,320,2012-10-03 23:15:00
5:35 PM,62.6,8.6,12,30.17,10.0,NW,12.7,-,N/A,,Clear,320,2012-10-03 23:35:00
5:55 PM,64.4,8.6,11,30.17,10.0,NW,11.5,16.1,N/A,,Clear,310,2012-10-03 23:55:00
6:15 PM,62.6,8.6,12,30.17,10.0,NW,9.2,-,N/A,,Clear,320,2012-10-04 00:15:00
6:35 PM,62.6,12.2,14,30.16,10.0,WNW,12.7,-,N/A,,Clear,290,2012-10-04 00:35:00
6:55 PM,60.8,14.0,16,30.16,10.0,West,8.1,-,N/A,,Clear,280,2012-10-04 00:55:00
7:15 PM,59.0,15.8,19,30.17,10.0,West,6.9,-,N/A,,Clear,280,2012-10-04 01:15:00
7:35 PM,57.2,15.8,20,30.17,10.0,West,5.8,-,N/A,,Clear,280,2012-10-04 01:35:00
7:55 PM,55.4,17.6,23,30.17,10.0,WNW,5.8,-,N/A,,Clear,300,2012-10-04 01:55:00
8:15 PM,55.4,17.6,23,30.17,10.0,West,3.5,-,N/A,,Clear,260,2012-10-04 02:15:00
8:35 PM,53.6,17.6,24,30.17,10.0,West,3.5,-,N/A,,Clear,280,2012-10-04 02:35:00
8:55 PM,53.6,19.4,26,30.17,10.0,Calm,Calm,-,N/A,,Clear,0,2012-10-04 02:55:00
9:15 PM,50.0,23.0,35,30.17,10.0,Calm,Calm,-,N/A,,Partly Cloudy,0,2012-10-04 03:15:00
9:35 PM,48.2,24.8,40,30.17,10.0,Calm,Calm,-,N/A,,Partly Cloudy,0,2012-10-04 03:35:00
9:55 PM,41.0,24.8,53,30.18,10.0,Calm,Calm,-,N/A,,Scattered Clouds,0,2012-10-04 03:55:00
10:15 PM,41.0,26.6,57,30.18,10.0,Calm,Calm,-,N/A,,Scattered Clouds,0,2012-10-04 04:15:00
10:35 PM,39.2,26.6,61,30.19,10.0,Calm,Calm,-,N/A,,Partly Cloudy,0,2012-10-04 04:35:00
10:55 PM,39.2,26.6,61,30.19,10.0,SE,4.6,-,N/A,,Clear,140,2012-10-04 04:55:00
11:15 PM,42.8,24.8,49,30.19,10.0,Calm,Calm,-,N/A,,Clear,0,2012-10-04 05:15:00
11:35 PM,39.2,24.8,56,30.20,10.0,SSE,3.5,-,N/A,,Clear,150,2012-10-04 05:35:00
11:55 PM,35.6,24.8,65,30.20,10.0,Calm,Calm,-,N/A,,Clear,0,2012-10-04 05:55:00